SCP
0 0 0 0 0 0 0 0 0 0 0 0 0 0 0 0 0 0 0 0 0 0 0 0 0 0 0 0 0 0 0 0 0 0 0 0 0 0
0 0 0 0 0 0 0 0 0 0 0 0 0 0 0 0 0 0 0 0 0 0 0 0 0 0 0 0 0 0 -0 -0 -0 -0 -0 -0 0 0
0 0 0 0 0 0 0 0 0 0 0 0 0 0 0 0 0 0 -0 -0 -0 0 -0 0 -0 -0 -0 0 0 -0 -0 -0 -0 -0 -0 -0 -0 -0
0 0 0 0 0 0 0 0 0 0 0 0 0 0 0 0 -0 -0 -0 -0 -0 -0 -0 -0 -0 -0 -0 0 0 0 0 0 0 0 0 0 0 0
0 0 0 0 0 0 0 0 0 0 0 0 0 0 0 -0 -0 -0 -0 -0 -0 -0 -0 -0 -0 -0 -0 0 0 0 0 0 0 0 0 0 0 0
0 0 0 0 0 0 0 0 0 0 0 0 0 0 0 -0 -0 -0 -0 -0 -0 -0 -0 -0 0 -0 -0 0 0 0 0 0 0 0 0 0 0 0
0 0 0 0 0 0 0 0 0 0 0 0 0 0 0 -0 -0 -0 0 0 0 -0 0 0 0 0 0 0 0 0 0 0 0 0 0 0 0 0
0 0 0 0 0 0 0 0 0 0 0 0 0 0 0 0 0 0 0 0 -0 -0 0 0 0 0 0 0 0 0 0 0 0 0 0 0 0 0
0 0 0 0 0 0 0 0 0 0 0 0 0 0 0 0 0 0 0 0 0 0 0 0 0 0 0 0 0 0 0 0 0 0 0 0 0 0
0 0 0 0 0 0 0 0 0 0 0 0 0 0 0 0 0 0 0 0 0 0 0 0 0 0 0 0 0 -0 0 0 0 0 0 0 0 0
0 0 0 0 0 0 0 0 0 0 0 0 0 0 0 0 0 0 0 0 0 0 0 0 0 0 0 0 0 0 0 0 0 0 0 0 0 0
0 0 0 0 0 0 0 0 0 0 0 0 0 0 0 0 0 0 0 0 0 0 0 0 0 0 0 0 0 0 0 0 0 0 0 0 0 0
0 0 0 0 0 0 0 0 0 0 0 0 0 0 0 0 0 0 0 0 0 0 0 0 0 0 0 0 0 0 0 0 0 0 0 0 0 0
0 0 0 0 0 0 0 0 0 0 0 0 0 0 0 0 0 0 0 0 0 0 0 0 0 0 0 0 0 0 0 0 0 0 0 0 0 0
0 0 0 0 0 0 0 0 0 0 0 0 0 0 0 0 0 0 0 0 0 0 0 0 0 0 0 0 0 0 0 0 0 0 0 0 0 0
0 0 0 0 0 0 0 0 0 0 0 0 0 0 0 0 0 0 0 0 0 0 0 0 0 0 0 0 0 0 0 0 0 0 0 0 0 0
0 0 0 0 0 0 0 0 0 0 0 0 0 0 0 0 0 0 0 0 0 0 0 0 0 0 0 0 0 0 0 0 0 0 0 -0 0 0
0 0 0 0 0 0 0 0 0 0 0 0 0 0 0 0 0 0 0 0 0 0 0 0 0 0 0 0 0 0 0 -0 -0 -0 -0 -0 -0 -0
0 0 0 0 0 0 0 0 0 0 0 0 0 0 0 0 0 0 0 0 0 0 0 0 0 0 0 0 0 0 0 -0 -0 -0 -0 -0 -0 -0
0 0 0 0 0 0 0 0 0 0 0 0 0 0 0 0 0 0 0 0 0 0 0 0 0 0 0 0 -0 -0 -0 -0 -0 -0 -0 -0 0 -0
0 0 0 0 0 0 0 0 0 0 0 0 0 0 0 0 0 0 0 0 0 0 0 0 0 0 0 0 -0 -0 -0 -0 -0 -0 -0 0 0 -0
0 0 0 0 0 0 0 0 0 0 0 0 0 0 0 0 0 0 0 0 0 0 0 0 0 0 0 0 -0 -0 -0 -0 -0 -0 -0 -0 -0 0
0 0 0 0 0 0 0 0 0 0 0 0 0 0 0 0 0 0 0 0 0 0 0 0 0 0 0 -0 -0 -0 -0 -0 -0 -0 -0 -0 -0 -0
Wind_Speed_500mb
25 24 24 25 26 29 31 33 35 28 37 29 54 55 57 56 58 61 64 62 62 64 66 67 70 71 65 68 68 70 71 70 67 65 63 62 61 60
23 25 26 27 29 31 32 34 37 38 30 46 55 62 64 65 65 67 68 66 65 69 71 72 73 68 75 71 72 74 70 67 66 64 65 65 65 65
23 25 27 28 30 32 35 36 41 45 49 60 63 67 68 74 76 77 77 79 83 81 80 81 73 78 68 74 77 74 70 65 66 66 65 63 63 63
25 26 29 32 35 37 38 41 44 47 54 64 71 73 75 81 84 87 83 85 92 92 87 85 79 66 76 82 78 77 73 70 69 65 62 66 69 68
29 32 34 35 35 38 41 44 47 50 56 66 77 78 81 85 91 89 90 97 101 102 103 78 73 96 90 85 85 83 81 79 67 66 69 71 69 70
32 34 35 37 39 42 44 47 51 56 59 69 78 84 88 91 92 97 102 107 112 106 78 96 106 103 96 94 89 87 86 73 71 75 75 71 70 67
32 34 36 40 44 47 47 47 52 54 63 71 81 88 92 95 92 85 105 115 111 81 108 114 115 111 105 99 94 95 85 84 81 76 74 70 66 71
35 38 41 47 47 48 49 46 40 48 53 70 79 87 86 83 75 96 104 106 103 103 119 122 113 113 104 102 101 94 96 84 79 69 68 72 75 76
42 44 46 49 51 53 53 51 51 54 58 68 78 74 68 78 88 98 94 87 94 107 106 129 108 106 110 112 108 93 80 65 67 74 78 76 74 80
46 50 51 52 54 54 51 49 58 62 64 69 65 73 80 86 85 84 86 93 99 99 94 114 96 120 121 118 109 88 67 74 79 80 78 79 78 82
49 52 54 55 54 49 46 58 65 66 70 69 73 77 78 76 74 77 81 88 103 105 84 77 101 112 121 115 110 104 94 93 83 83 77 76 82 79
49 52 51 53 53 39 43 61 67 69 75 80 81 77 74 71 69 66 69 75 80 95 76 90 98 87 89 112 113 112 110 101 95 86 83 78 72 76
51 53 53 54 44 38 46 63 66 66 78 81 79 77 74 72 70 66 62 63 73 84 92 67 89 89 70 91 122 114 109 109 102 94 84 77 69 65
52 52 53 46 51 57 62 64 68 75 77 76 75 73 73 71 68 64 62 63 69 79 87 76 76 74 78 95 108 122 113 104 96 95 89 90 82 79
47 46 51 55 57 64 61 64 71 73 72 71 70 69 67 67 66 66 68 74 79 78 77 77 72 76 75 84 100 115 110 103 95 90 104 98 104 103
51 53 56 59 65 64 66 69 68 67 65 64 64 64 64 65 61 66 75 82 90 93 86 82 79 77 83 88 87 101 97 96 107 105 104 108 109 102
55 58 62 63 63 66 68 65 64 62 61 59 58 59 60 57 58 66 73 81 87 95 100 93 85 82 85 85 86 88 96 98 101 102 110 112 119 106
58 61 62 63 67 70 70 70 63 58 54 52 51 53 54 54 61 68 74 81 88 92 97 97 98 103 108 94 53 76 95 92 110 110 102 97 123 107
55 58 61 63 66 68 68 66 63 54 48 44 46 48 52 56 65 69 74 82 87 90 95 98 96 95 92 98 119 61 84 105 111 109 103 109 111 125
54 56 59 63 66 67 66 64 59 52 44 42 43 46 54 60 65 67 75 81 87 90 96 102 100 92 88 89 110 119 86 86 95 108 119 117 106 107
55 58 62 67 69 70 68 64 58 52 45 44 45 46 53 59 63 66 74 77 82 89 95 100 103 95 92 99 93 113 115 98 81 88 97 92 99 121
62 65 67 67 67 66 64 60 56 48 43 44 48 48 51 55 60 64 70 77 80 88 94 96 102 106 100 93 91 108 118 118 102 84 66 62 75 82
64 67 67 65 63 61 57 54 50 48 43 45 49 48 49 52 58 63 70 72 79 84 92 102 102 104 106 96 95 101 107 112 114 105 87 82 70 79
Wind_Direction_500mb
358 357 354 352 349 347 347 346 345 336 331 330 330 337 337 338 337 337 337 337 338 335 336 335 333 332 330 331 330 326 326 324 322 319 318 315 312 309
353 352 350 349 349 347 345 342 340 334 319 323 333 336 339 339 340 339 337 336 335 338 337 335 333 332 331 330 328 326 323 320 318 315 312 310 308 306
350 346 345 346 345 344 341 339 338 334 326 327 332 336 339 337 340 339 338 338 339 338 337 337 332 331 330 328 325 324 321 316 312 310 308 308 307 303
345 346 346 346 344 341 337 334 333 330 329 330 335 335 338 339 338 338 337 336 334 336 337 332 329 327 327 328 325 324 319 314 310 309 307 304 301 298
344 343 340 338 336 335 333 333 331 331 331 333 332 335 337 338 334 333 332 332 332 332 333 330 323 328 328 327 325 322 318 316 312 308 304 301 299 295
335 331 331 333 334 334 335 334 332 333 332 331 333 333 335 334 332 332 330 330 329 330 327 327 324 326 327 325 322 318 317 315 309 306 304 301 297 293
325 325 328 331 333 335 333 331 329 327 330 333 331 330 332 332 334 329 322 326 325 331 323 318 325 325 326 322 319 318 316 312 309 307 304 301 293 294
321 323 328 329 329 328 326 325 325 325 328 328 326 327 328 332 322 318 320 323 323 324 320 320 324 323 322 319 318 317 315 311 308 307 300 295 291 290
321 322 323 321 321 322 320 325 321 320 322 320 322 327 324 317 316 319 320 318 314 320 322 320 325 322 322 320 319 317 312 311 303 300 300 297 291 291
315 316 316 316 318 318 323 320 313 317 319 318 321 321 318 318 317 317 317 316 316 322 328 319 324 322 319 316 319 321 312 308 304 304 300 295 292 292
313 312 311 312 314 321 321 309 312 317 317 322 323 320 318 318 319 319 324 325 323 324 332 321 321 320 319 319 321 321 317 316 311 308 303 297 294 293
305 305 309 312 316 325 314 308 316 324 323 322 321 321 322 325 328 331 332 330 330 326 325 324 322 321 319 317 319 320 322 322 320 313 304 301 297 294
306 308 310 312 318 318 317 321 322 317 320 321 323 326 330 334 337 337 337 333 330 323 333 319 318 321 310 307 317 319 326 323 321 317 316 312 301 296
307 309 310 315 313 317 317 318 317 318 319 322 326 330 332 335 338 337 337 334 329 324 328 331 318 320 318 313 310 322 323 321 321 320 322 319 307 300
307 306 309 311 314 315 318 319 321 322 325 327 330 332 336 336 339 339 340 339 336 336 334 335 332 330 322 306 306 318 315 323 324 319 317 311 308 311
307 309 311 312 315 316 319 322 325 326 328 330 331 333 336 337 343 343 344 343 341 343 342 343 339 335 328 324 319 318 323 306 318 314 311 309 312 313
302 305 306 311 315 318 320 324 326 327 328 328 330 334 337 338 343 345 345 344 342 343 343 346 343 339 334 330 324 325 314 308 314 309 314 309 313 312
306 308 314 317 319 322 325 326 327 326 327 328 332 336 336 338 339 343 344 345 345 345 344 346 347 344 342 336 327 312 324 312 318 317 312 305 309 320
309 312 315 319 322 323 324 325 325 326 326 326 330 336 337 338 341 343 345 345 345 347 349 347 347 345 331 323 335 334 317 323 318 314 313 309 303 315
310 316 320 322 323 324 324 323 321 323 325 326 329 334 339 338 341 343 344 344 345 347 349 351 351 345 333 325 324 339 337 318 319 316 318 322 320 325
320 323 324 325 325 324 322 320 317 319 323 324 327 329 335 338 341 342 342 345 346 346 347 347 350 349 344 344 329 330 342 346 327 319 319 319 319 326
323 323 323 323 321 320 318 315 312 314 318 323 325 327 332 336 341 339 342 346 349 349 350 348 350 352 351 346 331 331 342 349 352 352 355 343 334 331
321 321 322 322 322 320 316 313 310 312 316 319 324 326 328 332 336 337 340 343 346 348 351 350 350 351 353 349 339 337 345 347 352 354 359 9 8 15
Wind_Speed_850mb
25 24 24 25 26 29 31 33 35 28 37 29 54 55 57 56 58 61 64 62 62 64 66 67 70 71 65 68 68 70 71 70 67 65 63 62 61 60
23 25 26 27 29 31 32 34 37 38 30 46 55 62 64 65 65 67 68 66 65 69 71 72 73 68 75 71 72 74 70 67 66 64 65 65 65 65
23 25 27 28 30 32 35 36 41 45 49 60 63 67 68 74 76 77 77 79 83 81 80 81 73 78 68 74 77 74 70 65 66 66 65 63 63 63
25 26 29 32 35 37 38 41 44 47 54 64 71 73 75 81 84 87 83 85 92 92 87 85 79 66 76 82 78 77 73 70 69 65 62 66 69 68
29 32 34 35 35 38 41 44 47 50 56 66 77 78 81 85 91 89 90 97 101 102 103 78 73 96 90 85 85 83 81 79 67 66 69 71 69 70
32 34 35 37 39 42 44 47 51 56 59 69 78 84 88 91 92 97 102 107 112 106 78 96 106 103 96 94 89 87 86 73 71 75 75 71 70 67
32 34 36 40 44 47 47 47 52 54 63 71 81 88 92 95 92 85 105 115 111 81 108 114 115 111 105 99 94 95 85 84 81 76 74 70 66 71
35 38 41 47 47 48 49 46 40 48 53 70 79 87 86 83 75 96 104 106 103 103 119 122 113 113 104 102 101 94 96 84 79 69 68 72 75 76
42 44 46 49 51 53 53 51 51 54 58 68 78 74 68 78 88 98 94 87 94 107 106 129 108 106 110 112 108 93 80 65 67 74 78 76 74 80
46 50 51 52 54 54 51 49 58 62 64 69 65 73 80 86 85 84 86 93 99 99 94 114 96 120 121 118 109 88 67 74 79 80 78 79 78 82
49 52 54 55 54 49 46 58 65 66 70 69 73 77 78 76 74 77 81 88 103 105 84 77 101 112 121 115 110 104 94 93 83 83 77 76 82 79
49 52 51 53 53 39 43 61 67 69 75 80 81 77 74 71 69 66 69 75 80 95 76 90 98 87 89 112 113 112 110 101 95 86 83 78 72 76
51 53 53 54 44 38 46 63 66 66 78 81 79 77 74 72 70 66 62 63 73 84 92 67 89 89 70 91 122 114 109 109 102 94 84 77 69 65
52 52 53 46 51 57 62 64 68 75 77 76 75 73 73 71 68 64 62 63 69 79 87 76 76 74 78 95 108 122 113 104 96 95 89 90 82 79
47 46 51 55 57 64 61 64 71 73 72 71 70 69 67 67 66 66 68 74 79 78 77 77 72 76 75 84 100 115 110 103 95 90 104 98 104 103
51 53 56 59 65 64 66 69 68 67 65 64 64 64 64 65 61 66 75 82 90 93 86 82 79 77 83 88 87 101 97 96 107 105 104 108 109 102
55 58 62 63 63 66 68 65 64 62 61 59 58 59 60 57 58 66 73 81 87 95 100 93 85 82 85 85 86 88 96 98 101 102 110 112 119 106
58 61 62 63 67 70 70 70 63 58 54 52 51 53 54 54 61 68 74 81 88 92 97 97 98 103 108 94 53 76 95 92 110 110 102 97 123 107
55 58 61 63 66 68 68 66 63 54 48 44 46 48 52 56 65 69 74 82 87 90 95 98 96 95 92 98 119 61 84 105 111 109 103 109 111 125
54 56 59 63 66 67 66 64 59 52 44 42 43 46 54 60 65 67 75 81 87 90 96 102 100 92 88 89 110 119 86 86 95 108 119 117 106 107
55 58 62 67 69 70 68 64 58 52 45 44 45 46 53 59 63 66 74 77 82 89 95 100 103 95 92 99 93 113 115 98 81 88 97 92 99 121
62 65 67 67 67 66 64 60 56 48 43 44 48 48 51 55 60 64 70 77 80 88 94 96 102 106 100 93 91 108 118 118 102 84 66 62 75 82
64 67 67 65 63 61 57 54 50 48 43 45 49 48 49 52 58 63 70 72 79 84 92 102 102 104 106 96 95 101 107 112 114 105 87 82 70 79
Wind_Direction_850mb
358 357 354 352 349 347 347 346 345 336 331 330 330 337 337 338 337 337 337 337 338 335 336 335 333 332 330 331 330 326 326 324 322 319 318 315 312 309
353 352 350 349 349 347 345 342 340 334 319 323 333 336 339 339 340 339 337 336 335 338 337 335 333 332 331 330 328 326 323 320 318 315 312 310 308 306
350 346 345 346 345 344 341 339 338 334 326 327 332 336 339 337 340 339 338 338 339 338 337 337 332 331 330 328 325 324 321 316 312 310 308 308 307 303
345 346 346 346 344 341 337 334 333 330 329 330 335 335 338 339 338 338 337 336 334 336 337 332 329 327 327 328 325 324 319 314 310 309 307 304 301 298
344 343 340 338 336 335 333 333 331 331 331 333 332 335 337 338 334 333 332 332 332 332 333 330 323 328 328 327 325 322 318 316 312 308 304 301 299 295
335 331 331 333 334 334 335 334 332 333 332 331 333 333 335 334 332 332 330 330 329 330 327 327 324 326 327 325 322 318 317 315 309 306 304 301 297 293
325 325 328 331 333 335 333 331 329 327 330 333 331 330 332 332 334 329 322 326 325 331 323 318 325 325 326 322 319 318 316 312 309 307 304 301 293 294
321 323 328 329 329 328 326 325 325 325 328 328 326 327 328 332 322 318 320 323 323 324 320 320 324 323 322 319 318 317 315 311 308 307 300 295 291 290
321 322 323 321 321 322 320 325 321 320 322 320 322 327 324 317 316 319 320 318 314 320 322 320 325 322 322 320 319 317 312 311 303 300 300 297 291 291
315 316 316 316 318 318 323 320 313 317 319 318 321 321 318 318 317 317 317 316 316 322 328 319 324 322 319 316 319 321 312 308 304 304 300 295 292 292
313 312 311 312 314 321 321 309 312 317 317 322 323 320 318 318 319 319 324 325 323 324 332 321 321 320 319 319 321 321 317 316 311 308 303 297 294 293
305 305 309 312 316 325 314 308 316 324 323 322 321 321 322 325 328 331 332 330 330 326 325 324 322 321 319 317 319 320 322 322 320 313 304 301 297 294
306 308 310 312 318 318 317 321 322 317 320 321 323 326 330 334 337 337 337 333 330 323 333 319 318 321 310 307 317 319 326 323 321 317 316 312 301 296
307 309 310 315 313 317 317 318 317 318 319 322 326 330 332 335 338 337 337 334 329 324 328 331 318 320 318 313 310 322 323 321 321 320 322 319 307 300
307 306 309 311 314 315 318 319 321 322 325 327 330 332 336 336 339 339 340 339 336 336 334 335 332 330 322 306 306 318 315 323 324 319 317 311 308 311
307 309 311 312 315 316 319 322 325 326 328 330 331 333 336 337 343 343 344 343 341 343 342 343 339 335 328 324 319 318 323 306 318 314 311 309 312 313
302 305 306 311 315 318 320 324 326 327 328 328 330 334 337 338 343 345 345 344 342 343 343 346 343 339 334 330 324 325 314 308 314 309 314 309 313 312
306 308 314 317 319 322 325 326 327 326 327 328 332 336 336 338 339 343 344 345 345 345 344 346 347 344 342 336 327 312 324 312 318 317 312 305 309 320
309 312 315 319 322 323 324 325 325 326 326 326 330 336 337 338 341 343 345 345 345 347 349 347 347 345 331 323 335 334 317 323 318 314 313 309 303 315
310 316 320 322 323 324 324 323 321 323 325 326 329 334 339 338 341 343 344 344 345 347 349 351 351 345 333 325 324 339 337 318 319 316 318 322 320 325
320 323 324 325 325 324 322 320 317 319 323 324 327 329 335 338 341 342 342 345 346 346 347 347 350 349 344 344 329 330 342 346 327 319 319 319 319 326
323 323 323 323 321 320 318 315 312 314 318 323 325 327 332 336 341 339 342 346 349 349 350 348 350 352 351 346 331 331 342 349 352 352 355 343 334 331
321 321 322 322 322 320 316 313 310 312 316 319 324 326 328 332 336 337 340 343 346 348 351 350 350 351 353 349 339 337 345 347 352 354 359 9 8 15